Location: Dumpton Point
(51.3500°N, 1.4433°E)
Time: 08:20:17
(UTC+00:00)

Daily predictions for brighter satellites

Satellite Brightness Start Highest point End
(mag) Time Altitude Azimuth Time Altitude Azimuth Time Altitude Azimuth
Cosmos 2228 3.1 19:09:39 10° S 19:13:51 55° E 19:18:08 10° NNE
STARLINK-1224 3.7 19:10:19 10° WNW 19:14:29 81° NNE 19:18:38 10° ESE
STARLINK-1203 3.7 19:12:27 10° WNW 19:16:41 85° NNE 19:20:54 10° ESE
Cosmos 1943 3.3 19:11:59 10° SSW 19:17:40 88° WNW 19:23:25 10° NNE
STARLINK-1225 3.7 19:15:18 10° WNW 19:19:29 83° NNE 19:23:37 10° ESE
MOS 1 4.3 19:14:24 10° SSE 19:20:04 83° ENE 19:25:47 10° NNW
MetOp-A 4.5 19:15:48 10° SE 19:20:57 50° ENE 19:26:07 10° N
Resurs 01 Rocket 2.6 19:18:31 10° SE 19:22:21 30° ENE 19:26:12 10° N
STARLINK-52 4.2 19:20:10 10° SSW 19:22:47 23° SE 19:25:24 10° E
Cosmos 1758 Rocket 4.2 19:18:41 10° NNW 19:22:58 59° W 19:27:12 10° S
CZ-2C R/B 3.6 19:18:43 10° NE 19:23:00 25° E 19:27:17 10° SSE
STARLINK-1230 3.6 19:20:17 10° WNW 19:24:27 86° NNE 19:28:36 10° ESE
Nadezhda 1 Rocket 4.1 19:20:01 10° S 19:26:17 62° E 19:32:31 10° NNE
BREEZE M DEB (TANK) 4.3 19:23:50 10° SSE 19:26:25 18° ESE 19:31:04 10° E
Cosmos 1697 Rocket 4.3 19:23:20 10° NNW 19:27:44 22° NE 19:32:07 10° E
STARLINK-1243 3.6 19:25:15 10° WNW 19:29:24 88° N 19:33:24 11° ESE
SL-24 R/B - RUBIN 2 4.4 19:24:27 10° SSW 19:29:59 56° ESE 19:36:12 10° NE
SPOT 3 Rocket 3.7 19:24:53 10° SSE 19:30:00 61° ENE 19:35:08 10° N
Cosmos 2154 Rocket 4.0 19:23:52 10° N 19:30:16 79° ENE 19:36:36 10° SSE
FALCON 9 DEB 4.1 19:28:00 10° SSW 19:31:04 29° SE 19:34:08 10° E
Cosmos 1953 Rocket 3.7 19:26:46 10° NNW 19:31:16 84° W 19:35:46 10° S
ARGOS 3.3 19:26:04 10° SSE 19:31:29 85° WSW 19:36:53 10° NNW
NOSS 3-4 (A) 4.3 19:26:12 10° NW 19:33:02 63° SW 19:40:34 10° SSE
NOSS 3-4 (C) 4.3 19:26:19 10° NW 19:33:09 63° SW 19:40:41 10° SSE
Cosmos 1606 Rocket 3.6 19:29:06 10° S 19:33:33 89° E 19:38:04 10° N
STARLINK-1236 3.6 19:30:14 10° WNW 19:34:23 89° SSW 19:38:11 12° ESE
USA 186 2.4 19:33:42 10° S 19:36:55 57° W 19:39:58 10° NNW
Cosmos 1953 4.0 19:36:14 10° SW 19:39:58 38° WNW 19:43:45 10° N
Meteor 1-11 4.4 19:35:36 10° NNW 19:41:23 85° W 19:47:04 10° S
Cosmos 1818 3.9 19:38:21 10° SW 19:43:46 71° NW 19:49:15 10° NE
STARLINK-1269 3.6 19:40:11 10° WNW 19:44:20 83° SSW 19:47:44 15° ESE
Cosmos 1656 4.5 19:41:43 10° NNW 19:47:02 38° NE 19:51:23 14° ESE
Cosmos 1763 Rocket 4.3 19:42:56 10° NNW 19:47:43 35° NE 19:51:29 15° ESE
STARLINK-1200 3.6 19:45:10 10° WNW 19:49:19 80° SSW 19:52:31 16° ESE
STARLINK-1234 4.3 19:50:53 10° W 19:53:40 29° SSW 19:55:47 14° SSE
STARLINK-1209 4.4 19:51:23 10° W 19:54:07 28° SW 19:56:15 14° SSE
STARLINK-1192 3.6 19:50:09 10° WNW 19:54:18 77° SSW 19:57:18 18° ESE
STARLINK-1233 3.9 19:51:41 10° W 19:54:37 36° SSW 19:56:38 17° SSE
STARLINK-1212 3.9 19:52:09 10° W 19:55:04 36° SSW 19:57:04 17° SSE
STARLINK-1105 3.9 19:52:35 10° W 19:55:31 36° SSW 19:57:31 17° SSE
STARLINK-1206 3.9 19:53:04 10° W 19:55:58 35° SSW 19:57:55 17° SSE
Cosmos 1455 4.3 19:56:32 11° E 19:56:32 11° E 19:57:40 10° ENE
STARLINK-1247 4.0 19:53:32 10° W 19:56:25 35° SSW 19:58:22 17° SSE
SeaSat 1 3.3 19:51:56 10° NNE 19:56:46 55° NW 20:01:34 10° SW
STARLINK-1227 4.0 19:53:56 10° W 19:56:51 35° SSW 19:58:47 17° SSE
Iridium 4 Rocket 4.1 19:53:29 10° NNE 19:57:04 26° ENE 19:59:06 18° ESE
STARLINK-1218 4.0 19:54:26 10° W 19:57:19 34° SSW 19:59:13 17° SSE
STARLINK-1226 4.0 19:54:52 10° W 19:57:46 34° SSW 19:59:40 17° SSE
Cosmos 1980 Rocket 3.8 19:53:37 10° NNW 19:57:53 21° NE 20:02:02 10° E
STARLINK-1254 4.0 19:55:18 10° W 19:58:12 34° SSW 20:00:06 17° SSE
STARLINK-1215 4.0 19:55:48 10° W 19:58:40 34° SSW 20:00:32 18° SSE
Cosmos 1174 4.2 19:55:10 10° NW 19:59:07 64° NE 20:02:39 18° SE
STARLINK-1231 4.0 19:56:15 10° W 19:59:07 34° SSW 20:00:58 18° SSE
STARLINK-1244 3.7 19:55:13 10° WNW 19:59:22 73° SSW 20:02:10 20° ESE
USA 234 4.3 19:54:58 10° ENE 19:59:42 21° SE 20:04:23 10° S
STARLINK-1232 4.0 19:57:09 10° W 20:00:02 33° SSW 20:01:50 18° SSE
Cosmos 1892 3.8 19:56:56 10° N 20:00:23 29° ENE 20:02:12 20° ESE
STARLINK-1217 4.1 19:57:36 10° W 20:00:28 33° SSW 20:02:16 18° SSE
Abrixas rocket 3.6 19:58:17 10° WSW 20:00:44 24° SSW 20:02:07 17° SSE
STARLINK-1208 4.1 19:58:01 10° W 20:00:54 33° SSW 20:02:43 18° SSE
STARLINK-1229 4.1 19:58:30 10° W 20:01:21 32° SSW 20:03:07 18° SSE
STARLINK-1271 4.1 19:58:58 10° W 20:01:49 32° SSW 20:03:34 18° SSE
STARLINK-1270 4.1 19:59:26 10° W 20:02:16 32° SSW 20:04:00 18° SSE
STARLINK-1154 4.1 19:59:53 10° W 20:02:43 32° SSW 20:04:26 18° SSE
STARLINK-1197 4.1 20:00:47 10° W 20:03:37 31° SSW 20:05:18 18° SSE
STARLINK-1189 4.1 20:01:13 10° W 20:04:03 31° SSW 20:05:43 18° SSE
STARLINK-1138 3.7 20:00:07 10° WNW 20:04:15 70° SSW 20:06:52 21° ESE
STARLINK-1198 4.2 20:01:42 10° W 20:04:30 31° SSW 20:06:10 19° SSE
Cosmos 1825 4.1 20:02:27 10° NNE 20:04:45 15° ENE 20:05:39 14° E
STARLINK-1188 4.2 20:02:07 10° W 20:04:56 31° SSW 20:06:35 19° SSE
ATLAS 2AS CENTAUR R/B 3.9 19:57:57 10° NW 20:04:57 41° WSW 20:11:23 10° S
H-2A R/B 3.4 20:00:17 10° SSW 20:05:06 39° W 20:09:50 10° NNW
ATLAS 5 CENTAUR R/B 1.5 20:00:56 10° SW 20:05:09 78° SE 20:09:59 10° NE
STARLINK-1187 4.4 20:03:14 10° W 20:06:01 28° SW 20:07:42 17° SSE
STARLINK-1199 4.2 20:04:05 10° W 20:06:54 30° SSW 20:08:31 19° SSE
STARLINK-1191 4.2 20:04:33 10° W 20:07:20 30° SSW 20:08:56 19° SSE
STARLINK-1210 4.2 20:05:00 10° W 20:07:48 30° SSW 20:09:23 19° SSE
STARLINK-1221 4.3 20:05:27 10° W 20:08:15 30° SSW 20:09:49 19° SSE
COSMOS 2455 3.3 20:02:21 10° NW 20:08:17 61° WSW 20:13:57 11° SSE
STARLINK-1219 4.3 20:05:54 10° W 20:08:42 29° SSW 20:10:15 19° SSE
STARLINK-1222 4.3 20:06:20 10° W 20:09:08 29° SSW 20:10:40 19° SSE
STARLINK-1143 3.7 20:05:05 10° WNW 20:09:12 67° SSW 20:11:39 23° SE
STARLINK-1211 4.3 20:06:50 10° W 20:09:36 29° SSW 20:11:07 19° SSE
STARLINK-1214 4.3 20:07:16 10° W 20:10:03 29° SSW 20:11:33 19° SSE
STARLINK-1245 4.3 20:07:45 10° W 20:10:30 28° SW 20:11:57 19° S
STARLINK-1238 4.3 20:08:09 10° W 20:10:56 28° SW 20:12:25 19° S
STARLINK-1205 4.3 20:09:06 10° W 20:11:50 28° SW 20:13:16 19° S
STARLINK-1204 4.3 20:09:34 10° W 20:12:18 28° SW 20:13:42 19° S
ERBS 2.3 20:09:21 10° WNW 20:12:44 74° SSW 20:14:20 28° SE
Cosmos 1140 Rocket 3.5 20:07:42 10° SSW 20:12:53 88° WNW 20:18:06 10° NNE
STARLINK-1241 3.8 20:10:07 10° WNW 20:14:13 63° SSW 20:16:28 25° SE
STARLINK-29 2.9 20:15:07 10° SW 20:18:16 59° SSE 20:19:44 28° E
STARLINK-1239 3.8 20:15:05 10° WNW 20:19:11 60° SSW 20:21:14 27° SE
SAR-Lupe-2 4.1 20:16:52 10° NNE 20:20:13 36° E 20:21:15 30° SE
ATLAS CENTAUR R/B 2.5 20:16:47 10° NNW 20:20:20 30° NNE 20:22:10 20° E
IGS 5A 4.2 20:20:27 26° ESE 20:22:07 37° ENE 20:25:58 10° N
Cosmos 1300 2.6 20:19:28 10° S 20:23:16 89° ESE 20:27:08 10° N
Resurs 1-3 4.1 20:19:15 10° S 20:23:34 58° W 20:27:56 10° NNW
STARLINK-1240 3.9 20:20:04 10° WNW 20:24:08 57° SSW 20:26:01 29° SE
Spot 2 Rocket 3.6 20:22:15 22° SE 20:25:29 61° ENE 20:30:32 10° N
STARLINK-60 2.9 20:22:47 10° WSW 20:26:03 85° NNW 20:27:47 26° ENE
Cosmos 841 Rocket 4.1 20:21:58 10° NNW 20:27:00 41° NE 20:29:32 25° ESE
Cosmos 1850 Rocket 4.4 20:24:21 16° SSE 20:28:05 39° ESE 20:32:52 10° NE
In-Cosmos 22 Rocket 4.2 20:22:24 10° NNW 20:28:17 82° ENE 20:32:45 18° SSE
STARLINK-1216 4.0 20:25:02 10° WNW 20:29:05 54° SSW 20:30:47 31° SSE
CZ-2C R/B 4.3 20:26:44 10° N 20:31:25 63° WNW 20:35:58 10° SSW
Terra 3.2 20:29:53 21° E 20:31:28 25° ENE 20:35:19 10° N
Cosmos 2082 Rocket 4.1 20:34:09 12° ENE 20:34:09 12° ENE 20:35:15 10° ENE
SPOT 5 3.7 20:31:40 25° E 20:32:55 29° ENE 20:36:40 10° N
STPSAT 2 (USA 217) 4.5 20:29:02 10° SSW 20:33:28 65° ESE 20:37:56 10° NNE
STARLINK-1237 4.0 20:30:01 10° WNW 20:34:02 51° SSW 20:35:33 32° SSE
Meteor 2-10 Rocket 4.3 20:33:52 27° ESE 20:35:21 32° E 20:40:08 10° NNE
MetOp-B 4.1 20:32:14 21° SSE 20:35:55 83° ENE 20:41:20 10° NNW
Cosmos 2058 Rocket 4.4 20:33:59 10° SW 20:38:16 42° WNW 20:42:34 10° N
Cosmos 1833 Rocket 3.8 20:39:01 24° E 20:39:01 24° E 20:43:06 10° NE
STARLINK-1202 4.1 20:35:01 10° WNW 20:39:01 48° SSW 20:40:21 34° SSE
Cosmos 468 Rocket 3.9 20:34:27 10° NNW 20:39:40 87° WSW 20:42:31 27° SSE
CARTOSAT-1 4.4 20:39:31 30° E 20:40:38 35° ENE 20:44:35 10° N
DMSP B5D2-2 4.4 20:39:57 10° N 20:45:09 67° WNW 20:50:21 10° SSW
SL-4 R/B 1.5 20:42:13 10° W 20:45:38 85° N 20:46:33 46° E
Cosmos 1408 2.8 20:42:54 10° N 20:46:29 49° ENE 20:46:55 46° E
ERS-1 Rocket 3.3 20:47:01 34° ESE 20:48:52 51° ENE 20:53:45 10° N
STARLINK-1246 4.3 20:45:00 10° WNW 20:48:56 42° SSW 20:49:54 35° S
RESURS DK-1 2.4 20:44:58 10° NNW 20:49:08 70° NE 20:50:15 46° SE
Cosmos 1766 Rocket 4.1 20:47:44 10° N 20:52:01 42° ENE 20:52:50 38° ESE
Cosmos 1570 Rocket 4.0 20:46:58 10° NNW 20:52:21 73° ENE 20:54:32 36° SE
BREEZE M DEB (TANK) 2.9 20:46:21 10° WSW 20:52:58 54° S 20:53:25 49° SE
Okean 3 Rocket 3.8 20:49:16 10° N 20:53:36 51° ENE 20:54:33 43° ESE
Meteor 2-12 Rocket 4.4 20:47:42 10° N 20:53:51 89° E 20:57:32 26° S
STARLINK-1224 4.3 20:50:01 10° WNW 20:53:54 40° SSW 20:54:43 35° S
Cosmos 2058 3.2 20:51:21 10° NNW 20:55:26 63° W 20:57:23 29° SSW
STARLINK-1203 4.5 20:52:23 10° WNW 20:56:16 37° SW 20:57:04 33° S
CZ-4C R/B 3.1 20:50:41 10° NW 20:57:25 60° NE 21:01:49 27° ESE
COSMOS 2406 3.3 20:54:52 23° S 20:58:16 51° ESE 21:03:47 10° NE
STARLINK-52 2.9 20:55:25 10° WSW 20:58:27 78° SW 20:58:27 78° SW
Resurs 01 Rocket 2.9 20:55:18 14° SSW 20:58:46 38° W 21:02:54 10° NNW
STARLINK-1225 4.4 20:55:01 10° WNW 20:58:51 37° SW 20:59:30 35° SSW
MOS 1 Rocket 4.4 20:54:53 10° N 21:00:09 55° WNW 21:05:26 10° SW
Cosmos 2218 Rocket 4.3 20:56:08 10° NNW 21:02:16 65° W 21:07:06 17° S
CZ-2C R/B 3.2 20:58:35 10° N 21:03:38 55° WNW 21:08:42 10° SW
Cosmos 1812 Rocket 3.8 21:02:25 19° SSW 21:05:28 68° WNW 21:09:49 10° N
Cosmos 2151 2.8 21:02:39 10° N 21:06:53 75° E 21:07:34 59° SE
FALCON 9 DEB 3.0 21:04:23 10° WSW 21:07:53 87° NNW 21:07:53 87° NNW
Cosmos 1697 Rocket 2.6 21:06:54 10° NNW 21:12:37 80° ENE 21:14:29 45° SE
Cosmos 2369 3.6 21:07:03 10° NNW 21:12:45 79° ENE 21:14:34 45° SE
Cosmos 1741 Rocket 4.1 21:21:15 13° SSW 21:25:58 81° WNW 21:31:20 10° NNE
Landsat 7 4.3 21:25:10 36° SSW 21:26:48 55° W 21:31:30 10° NNW
Cosmos 1763 Rocket 4.3 21:24:46 10° NW 21:29:38 42° WSW 21:31:31 30° SSW
Cosmos 1656 4.3 21:25:24 10° NW 21:30:52 49° WSW 21:32:50 34° SSW
Cosmos 1408 Rocket 3.6 21:26:56 10° N 21:31:22 63° ENE 21:31:22 63° ENE
Cosmos 1455 2.3 21:31:25 74° WNW 21:31:25 74° WNW 21:35:16 10° N
SPOT 1/Viking Rocket 3.9 21:30:43 37° SSW 21:32:36 59° W 21:37:47 10° NNW
Cosmos 540 Rocket 3.5 21:28:07 10° NNW 21:33:18 75° WSW 21:34:20 56° S
Cosmos 1743 Rocket 4.4 21:29:49 10° N 21:33:44 38° ENE 21:33:44 38° ENE
SL-16 R/B 3.5 21:29:20 10° NNW 21:34:19 30° NE 21:36:11 25° ENE
Cosmos 2360 Rocket 4.2 21:30:32 10° NNW 21:34:30 19° NNE 21:37:32 13° ENE
Cosmos 2208 Rocket 4.2 21:29:41 10° NNW 21:34:51 65° WSW 21:36:03 49° SSW
Cosmos 1892 4.4 21:32:41 10° NNW 21:36:02 28° W 21:37:13 23° WSW
Iridium 4 Rocket 4.5 21:33:21 10° NNW 21:37:06 32° W 21:38:54 23° SW
Cosmos 1825 2.6 21:36:56 10° NNW 21:40:28 56° W 21:40:28 56° W
Cosmos 2322 Rocket 3.5 21:36:22 10° NNW 21:41:16 29° NE 21:43:04 24° ENE
Cosmos 1980 Rocket 2.1 21:37:11 10° NNW 21:42:50 77° ENE 21:43:48 61° ESE
USA 234 3.2 21:37:08 10° ENE 21:43:38 62° SE 21:50:06 10° SW
Nadezhda 3 Rocket 3.9 21:41:26 43° S 21:43:43 86° E 21:50:02 10° N
Cosmos 1814 Rocket 4.3 21:39:48 10° NNW 21:45:07 63° WSW 21:46:08 52° SSW
Cosmos 2221 4.0 21:46:37 26° NE 21:46:37 26° NE 21:49:03 10° NNE
Cosmos 1535 Rocket 4.4 21:39:31 10° N 21:45:42 72° ENE 21:46:59 56° SE
Cosmos-2242 3.4 21:45:29 54° WSW 21:46:08 61° WNW 21:50:29 10° N
ASTEX 1 3.4 21:50:00 67° E 21:50:04 68° E 21:55:01 10° N
ATLAS 5 CENTAUR R/B 3.6 21:46:20 10° W 21:50:19 30° NNW 21:54:51 10° NE
Cosmos 1356 Rocket 4.2 21:49:52 41° WSW 21:50:47 49° WNW 21:54:55 10° N
Meteor 2-3 Rocket 3.6 21:48:42 10° NNW 21:54:29 89° ENE 21:55:21 66° SSE
Cosmos 2084 3.9 21:53:08 10° NW 21:57:21 57° NNE 21:57:21 57° NNE
Cosmos 1633 4.4 21:55:11 10° N 21:56:58 24° NNE 21:56:58 24° NNE
ATLAS CENTAUR R/B 2.5 21:55:41 10° NW 21:58:21 35° W 21:58:21 35° W
Mayak 0.0 22:02:27 10° NNE 22:04:58 34° NE 22:04:58 34° NE
Cosmos 1842 Rocket 4.4 22:09:34 43° NNE 22:09:34 43° NNE 22:12:37 10° NNE
Cosmos 841 Rocket 4.5 22:04:02 10° NW 22:08:50 36° WSW 22:09:38 34° WSW
Terra 2.2 22:08:46 54° WSW 22:08:55 55° W 22:13:37 10° NNW
Cosmos 1934 Rocket 3.9 22:04:04 10° NNW 22:10:21 79° W 22:11:27 61° SSW
Cosmos 2360 4.4 22:05:09 10° NW 22:10:44 57° WSW 22:11:16 54° SW
SPOT 5 3.7 22:10:53 36° W 22:10:57 36° W 22:14:59 10° NNW
Cosmos 2278 3.9 22:08:26 10° NW 22:13:58 56° WSW 22:14:24 55° SW
Cosmos 2082 Rocket 2.1 22:15:56 72° E 22:15:56 72° E 22:21:18 10° NNE
Sich 1 4.4 22:12:05 10° N 22:15:12 31° NE 22:15:12 31° NE
Cosmos 1833 Rocket 2.8 22:20:38 49° WSW 22:22:08 70° WNW 22:27:48 10° NNE
Meteor 2-2 Rocket 4.5 22:24:28 56° ENE 22:24:28 56° ENE 22:29:28 10° NNE
SL-4 R/B 4.4 22:21:45 10° W 22:22:09 13° W 22:22:09 13° W
ERS-1 Rocket 4.5 22:27:00 25° WSW 22:27:57 26° W 22:32:10 10° NW
Cosmos 1605 Rocket 3.8 22:22:35 10° N 22:28:47 85° W 22:29:21 75° S
Cosmos 2219 Rocket 4.3 22:27:41 10° NNW 22:31:38 19° NNE 22:34:41 13° ENE
Cosmos 2344 4.3 22:24:49 10° NW 22:34:10 77° SW 22:38:35 46° SSE
ALOS 2 3.9 22:36:50 35° NNE 22:36:50 35° NNE 22:39:56 10° N
NOSS 2-1 (C) 4.4 22:31:54 10° NW 22:36:39 61° NE 22:37:02 60° ENE
NOSS 2-1 (D) 4.3 22:36:08 10° NW 22:40:56 65° NE 22:41:11 64° ENE
Cosmos 1805 Rocket 4.5 22:37:16 10° N 22:40:32 47° N 22:40:32 47° N
Cosmos 1339 Rocket 4.4 22:42:33 76° SSW 22:43:07 87° W 22:49:35 10° N
Cosmos 1346 Rocket 4.5 22:40:22 10° N 22:42:41 31° NNE 22:42:41 31° NNE
CZ-4C R/B 3.2 22:39:15 10° NW 22:46:09 51° WSW 22:47:00 49° SW
Meteor 1-27 4.4 22:47:28 62° WSW 22:47:58 65° WNW 22:53:50 10° N
Spot 4 4.4 22:53:49 57° NW 22:53:49 57° NW 22:57:42 10° NNW
Cosmos 1697 Rocket 4.4 22:51:53 10° NW 22:55:57 21° W 22:56:13 21° WSW
Helios 1A 4.5 22:59:02 33° NNE 22:59:02 33° NNE 23:01:40 10° N
Cosmos 1633 Rocket 4.4 22:53:18 10° N 22:56:12 35° NNE 22:56:12 35° NNE
COSMOS 2428 4.5 22:56:42 10° NNW 23:01:23 25° NE 23:03:37 20° ENE
Cosmos 1607 3.9 23:12:04 79° WNW 23:12:15 80° NW 23:18:33 10° NE
Thor Agena Rocket 4.1 23:12:13 10° N 23:16:56 51° WNW 23:16:56 51° WNW
SL-16 R/B 2.5 23:13:16 10° NW 23:18:02 58° WNW 23:18:02 58° WNW
Cosmos 2360 Rocket 2.5 23:14:02 10° NNW 23:19:17 62° NE 23:19:17 62° NE
Cosmos 2221 4.2 23:23:27 29° NW 23:23:27 29° NW 23:26:36 10° N
Cosmos 2322 Rocket 2.6 23:20:12 10° NNW 23:24:52 58° WNW 23:24:52 58° WNW
Cosmos 1980 Rocket 3.9 23:22:07 10° NW 23:25:34 21° W 23:25:34 21° W
USA 234 3.5 23:20:15 10° ENE 23:26:45 68° NNW 23:33:14 10° W
Cosmos 2061 Rocket 4.0 23:24:41 10° N 23:30:49 79° ENE 23:30:49 79° ENE
Cosmos 1459 Rocket 4.0 23:30:02 10° NNW 23:36:11 72° W 23:36:11 72° W
ATLAS 5 CENTAUR R/B 4.3 23:32:40 10° NW 23:36:29 22° N 23:40:44 10° NE
MOS 1-B Rocket 4.2 23:34:09 10° NNE 23:40:21 68° E 23:40:21 68° E
Mayak 1.0 23:38:50 10° NNW 23:41:32 19° NW 23:41:32 19° NW
Cosmos 2333 Rocket 3.0 23:36:30 10° NNW 23:41:54 43° NE 23:42:25 42° ENE
Cosmos 2237 Rocket 4.3 23:38:06 10° NNW 23:42:31 23° NE 23:46:25 12° E
Cosmos 2233 Rocket 4.2 23:41:35 10° N 23:47:48 58° ENE 23:47:50 58° ENE
Cosmos 1864 Rocket 4.5 23:41:55 10° N 23:48:08 84° NE 23:48:08 84° NE
Cosmos 1680 Rocket 4.4 23:44:23 10° NNW 23:49:10 43° NE 23:49:10 43° NE
SL-16 R/B 4.2 23:48:42 18° E 23:51:35 25° NE 23:56:31 10° N
